When you browse on this site, cookies collect data to enhance your experience and personalize the content and advertising you see.
Visit our Privacy Policy to learn more. By continuing to use the site, you agree to this use of cookies and data.
  • In Schweiz
  • Länderverzeichnis
  • Für 7 Tage
  • Wassertemperatur
  • Wetterkarte
  • Widgets
  • user-avatar
    Anmelden

    Stündliche Wetter Motril

    Heute, 8 Dezember, Sonntag

    Zeit Temperatur Niederschläge Wind Luftdruck Luftfeuchtigkeit
    00:00 +13°C° 0 mm 1 m/S 764 mmHg 81%
    01:00 +13°C° 0 mm 1 m/S 764 mmHg 81%
    02:00 +13°C° 0 mm 2 m/S 764 mmHg 80%
    03:00 +13°C° 0 mm 2 m/S 764 mmHg 79%
    04:00 +12°C° 0 mm 2 m/S 764 mmHg 77%
    05:00 +12°C° 0 mm 2 m/S 764 mmHg 75%
    06:00 +12°C° 0 mm 2 m/S 764 mmHg 72%
    07:00 +14°C° 0 mm 2 m/S 764 mmHg 67%
    08:00 +15°C° 0 mm 2 m/S 764 mmHg 62%
    09:00 +16°C° 0 mm 2 m/S 764 mmHg 58%
    10:00 +17°C° 0 mm 3 m/S 764 mmHg 56%
    11:00 +18°C° 0 mm 3 m/S 764 mmHg 53%
    12:00 +18°C° 0 mm 3 m/S 764 mmHg 51%
    13:00 +18°C° 0 mm 4 m/S 764 mmHg 53%
    14:00 +18°C° 0 mm 4 m/S 763 mmHg 55%
    15:00 +18°C° 0 mm 4 m/S 763 mmHg 57%
    16:00 +17°C° 0 mm 4 m/S 763 mmHg 59%
    17:00 +15°C° 0 mm 4 m/S 764 mmHg 62%
    18:00 +14°C° 0 mm 4 m/S 764 mmHg 65%
    19:00 +14°C° 0 mm 4 m/S 764 mmHg 63%
    20:00 +15°C° 0 mm 4 m/S 764 mmHg 62%
    21:00 +15°C° 0 mm 4 m/S 765 mmHg 60%
    22:00 +14°C° 0 mm 4 m/S 765 mmHg 62%
    23:00 +14°C° 0 mm 4 m/S 765 mmHg 65%

    Morgen, 9 Dezember, Montag

    Zeit Temperatur Niederschläge Wind Luftdruck Luftfeuchtigkeit
    00:00 +14°C° 0 mm 3 m/S 765 mmHg 67%
    01:00 +14°C° 0 mm 3 m/S 765 mmHg 68%
    02:00 +14°C° 0 mm 3 m/S 764 mmHg 70%
    03:00 +14°C° 0 mm 3 m/S 764 mmHg 71%
    04:00 +13°C° 0 mm 3 m/S 764 mmHg 72%
    05:00 +13°C° 0 mm 3 m/S 765 mmHg 74%
    06:00 +13°C° 0 mm 3 m/S 765 mmHg 75%
    07:00 +14°C° 0 mm 3 m/S 765 mmHg 72%
    08:00 +17°C° 0 mm 3 m/S 765 mmHg 69%
    09:00 +18°C° 0 mm 3 m/S 766 mmHg 67%
    10:00 +19°C° 0 mm 2 m/S 766 mmHg 63%
    11:00 +20°C° 0 mm 2 m/S 766 mmHg 59%
    12:00 +21°C° 0 mm 2 m/S 766 mmHg 54%
    13:00 +21°C° 0 mm 2 m/S 765 mmHg 55%
    14:00 +21°C° 0 mm 2 m/S 765 mmHg 56%
    15:00 +22°C° 0 mm 1 m/S 765 mmHg 57%
    16:00 +20°C° 0 mm 1 m/S 765 mmHg 63%
    17:00 +19°C° 0 mm 1 m/S 765 mmHg 70%
    18:00 +16°C° 0 mm 1 m/S 765 mmHg 76%
    19:00 +16°C° 0 mm 1 m/S 765 mmHg 77%
    20:00 +16°C° 0 mm 1 m/S 765 mmHg 78%
    21:00 +16°C° 0 mm 1 m/S 766 mmHg 79%
    22:00 +16°C° 0 mm 1 m/S 766 mmHg 77%
    23:00 +16°C° 0 mm 1 m/S 766 mmHg 75%

    übermorgen, 10 Dezember, Dienstag

    Zeit Temperatur Niederschläge Wind Luftdruck Luftfeuchtigkeit
    00:00 +16°C° 0 mm 1 m/S 765 mmHg 73%
    01:00 +15°C° 0 mm 1 m/S 765 mmHg 72%
    02:00 +15°C° 0 mm 2 m/S 765 mmHg 71%
    03:00 +15°C° 0 mm 2 m/S 765 mmHg 70%
    04:00 +15°C° 0 mm 2 m/S 765 mmHg 70%
    05:00 +14°C° 0 mm 1 m/S 764 mmHg 69%
    06:00 +14°C° 0 mm 1 m/S 764 mmHg 69%
    07:00 +15°C° 0 mm 1 m/S 765 mmHg 65%
    08:00 +18°C° 0 mm 1 m/S 765 mmHg 62%
    09:00 +19°C° 0 mm 1 m/S 765 mmHg 58%
    10:00 +20°C° 0 mm 1 m/S 765 mmHg 55%
    11:00 +21°C° 0 mm 1 m/S 765 mmHg 53%
    12:00 +22°C° 0 mm 1 m/S 765 mmHg 50%
    13:00 +22°C° 0 mm 1 m/S 764 mmHg 50%
    14:00 +21°C° 0 mm 2 m/S 763 mmHg 50%
    15:00 +21°C° 0 mm 2 m/S 763 mmHg 50%
    16:00 +19°C° 0 mm 2 m/S 763 mmHg 54%
    17:00 +18°C° 0 mm 2 m/S 763 mmHg 58%
    18:00 +16°C° 0 mm 2 m/S 763 mmHg 62%
    19:00 +16°C° 0 mm 2 m/S 763 mmHg 61%
    20:00 +15°C° 0 mm 2 m/S 764 mmHg 60%
    21:00 +15°C° 0 mm 2 m/S 764 mmHg 59%
    22:00 +15°C° 0 mm 2 m/S 764 mmHg 57%
    23:00 +15°C° 0 mm 2 m/S 764 mmHg 55%

    11 Dezember, Mittwoch

    Zeit Temperatur Niederschläge Wind Luftdruck Luftfeuchtigkeit
    00:00 +15°C° 0 mm 2 m/S 764 mmHg 53%
    01:00 +14°C° 0 mm 2 m/S 763 mmHg 50%
    02:00 +14°C° 0 mm 2 m/S 763 mmHg 47%
    03:00 +14°C° 0 mm 2 m/S 763 mmHg 44%
    04:00 +13°C° 0 mm 3 m/S 762 mmHg 41%
    05:00 +13°C° 0 mm 3 m/S 762 mmHg 39%
    06:00 +13°C° 0 mm 3 m/S 762 mmHg 36%
    07:00 +14°C° 0 mm 3 m/S 763 mmHg 37%
    08:00 +17°C° 0 mm 3 m/S 763 mmHg 38%
    09:00 +18°C° 0 mm 4 m/S 763 mmHg 39%
    10:00 +19°C° 0 mm 4 m/S 763 mmHg 39%
    11:00 +20°C° 0 mm 4 m/S 763 mmHg 39%
    12:00 +21°C° 0 mm 4 m/S 762 mmHg 39%
    13:00 +21°C° 0 mm 4 m/S 762 mmHg 40%
    14:00 +21°C° 0 mm 5 m/S 762 mmHg 41%
    15:00 +21°C° 0 mm 5 m/S 761 mmHg 42%
    16:00 +19°C° 0 mm 5 m/S 761 mmHg 50%
    17:00 +17°C° 0 mm 5 m/S 762 mmHg 58%
    18:00 +15°C° 0 mm 5 m/S 762 mmHg 66%
    19:00 +15°C° 0 mm 5 m/S 762 mmHg 68%
    20:00 +15°C° 0 mm 5 m/S 762 mmHg 69%
    21:00 +15°C° 0 mm 4 m/S 763 mmHg 71%
    22:00 +14°C° 0 mm 4 m/S 763 mmHg 71%
    23:00 +14°C° 0 mm 4 m/S 763 mmHg 72%

    12 Dezember, Donnerstag

    Zeit Temperatur Niederschläge Wind Luftdruck Luftfeuchtigkeit
    00:00 +14°C° 0 mm 3 m/S 763 mmHg 73%
    01:00 +13°C° 0 mm 3 m/S 763 mmHg 73%
    02:00 +13°C° 0 mm 3 m/S 763 mmHg 73%
    03:00 +13°C° 0 mm 2 m/S 763 mmHg 74%
    04:00 +13°C° 0 mm 2 m/S 763 mmHg 75%
    05:00 +13°C° 0 mm 2 m/S 763 mmHg 75%
    06:00 +12°C° 0 mm 1 m/S 763 mmHg 76%
    07:00 +13°C° 0 mm 1 m/S 764 mmHg 72%
    08:00 +15°C° 0 mm 1 m/S 764 mmHg 68%
    09:00 +16°C° 0 mm 1 m/S 765 mmHg 63%
    10:00 +16°C° 0 mm 1 m/S 764 mmHg 59%
    11:00 +17°C° 0 mm 2 m/S 764 mmHg 55%
    12:00 +18°C° 0 mm 2 m/S 764 mmHg 52%
    13:00 +18°C° 0 mm 2 m/S 763 mmHg 51%
    14:00 +18°C° 0 mm 3 m/S 763 mmHg 51%
    15:00 +18°C° 0 mm 4 m/S 763 mmHg 51%
    16:00 +15°C° 0 mm 4 m/S 763 mmHg 52%
    17:00 +14°C° 0 mm 5 m/S 763 mmHg 54%
    18:00 +13°C° 0 mm 5 m/S 764 mmHg 55%
    19:00 +13°C° 0 mm 5 m/S 764 mmHg 56%
    20:00 +12°C° 0 mm 5 m/S 764 mmHg 56%
    21:00 +11°C° 0 mm 6 m/S 765 mmHg 56%
    22:00 +11°C° 0 mm 6 m/S 765 mmHg 56%
    23:00 +11°C° 0 mm 6 m/S 765 mmHg 55%

    13 Dezember, Freitag

    Zeit Temperatur Niederschläge Wind Luftdruck Luftfeuchtigkeit
    00:00 +11°C° 0 mm 6 m/S 765 mmHg 55%
    01:00 +12°C° 0 mm 5 m/S 765 mmHg 58%
    02:00 +12°C° 0 mm 5 m/S 764 mmHg 60%
    03:00 +12°C° 0 mm 5 m/S 764 mmHg 63%
    04:00 +12°C° 0 mm 5 m/S 764 mmHg 67%
    05:00 +12°C° 0 mm 5 m/S 764 mmHg 71%
    06:00 +12°C° 0 mm 5 m/S 764 mmHg 74%
    07:00 +13°C° 0 mm 5 m/S 764 mmHg 73%
    08:00 +14°C° 0 mm 5 m/S 765 mmHg 72%
    09:00 +16°C° 0 mm 5 m/S 765 mmHg 70%
    10:00 +17°C° 0 mm 6 m/S 765 mmHg 66%
    11:00 +19°C° 0 mm 6 m/S 765 mmHg 62%
    12:00 +20°C° 0 mm 6 m/S 764 mmHg 58%
    13:00 +20°C° 0 mm 6 m/S 764 mmHg 56%
    14:00 +20°C° 0 mm 6 m/S 763 mmHg 54%
    15:00 +20°C° 0 mm 6 m/S 763 mmHg 52%
    16:00 +19°C° 0 mm 6 m/S 763 mmHg 56%
    17:00 +17°C° 0 mm 6 m/S 763 mmHg 60%
    18:00 +16°C° 0 mm 6 m/S 763 mmHg 64%
    19:00 +16°C° 0 mm 6 m/S 763 mmHg 66%
    20:00 +15°C° 0 mm 6 m/S 763 mmHg 67%
    21:00 +15°C° 0 mm 5 m/S 763 mmHg 68%
    22:00 +15°C° 0 mm 5 m/S 763 mmHg 70%
    23:00 +15°C° 0 mm 4 m/S 763 mmHg 71%
    Mehr zeigen